Weather History for LHBP - November, 2013

Change the Weather History Date:

Wednesday, November 13, 2013

  Actual Average Record
Temperature  
Mean Temperature 47 °F -  
Max Temperature 50 °F 41 °F 66 °F (1996)
Min Temperature 44 °F 29 °F 19 °F (2003)
Degree Days  
Heating Degree Days 18    
Moisture  
Dew Point 45 °F    
Average Humidity 93    
Maximum Humidity 100    
Minimum Humidity 87    
Precipitation  
Precipitation 0.00 in - - ()
Sea Level Pressure  
Sea Level Pressure 30.26 in    
Wind  
Wind Speed 4 mph ()    
Max Wind Speed 16 mph    
Max Gust Speed -    
Visibility 4.4 miles    
Events      
Averages and records for this station are not official NWS values.
T = Trace of Precipitation, MM = Missing Value Source: Averaged Metar Reports

Daily Weather History Graph

Daily Weather History Graph

Search for Another Location

Airport or City:

Trip Planner

Search our weather history database for the weather conditions in past years. The results will help you decide how hot, cold, wet, or windy it might be!

Date:

Astronomy

Nov. 13, 2013 Rise Set
Actual Time 6:44 AM CET 4:09 PM CET
Civil Twilight 6:11 AM CET 4:42 PM CET
Nautical Twilight 5:34 AM CET 5:19 PM CET
Astronomical Twilight 4:58 AM CET 5:55 PM CET
Moon 2:01 PM CET (11/13) 2:01 AM CET (11/13)
Length of Visible Light 10h 31m
Length of Day
9h 24m
Waxing Gibbous, 82% of the Moon is Illuminated
Nov 13
Waxing Gibbous
Nov 17
Full
Nov 25
Last Quarter
Dec 3
New
Dec 9
First Quarter

Hourly Weather History & Observations

Time (CET) Temp. Windchill Dew Point Humidity Pressure Visibility Wind Dir Wind Speed Gust Speed Precip Events Conditions
12:00 AM 48.2 °F - 46.4 °F 93% 30.27 in 6.2 mi Variable 1.2 mph - N/A   Mostly Cloudy
12:30 AM 50.0 °F - 46.4 °F 87% 30.27 in 6.2 mi Variable 2.3 mph - N/A   Mostly Cloudy
1:00 AM 48.2 °F - 46.4 °F 93% 30.27 in 6.2 mi Variable 3.5 mph - N/A   Mostly Cloudy
1:30 AM 48.2 °F - 46.4 °F 93% 30.27 in 6.2 mi Variable 2.3 mph - N/A   Overcast
2:00 AM 48.2 °F - 46.4 °F 93% 30.27 in 6.2 mi Variable 1.2 mph - N/A   Mostly Cloudy
2:30 AM 48.2 °F - 46.4 °F 93% 30.27 in 6.2 mi Calm Calm - N/A   Mostly Cloudy
3:00 AM 48.2 °F - 46.4 °F 93% 30.27 in 6.2 mi Variable 1.2 mph - N/A   Mostly Cloudy
3:30 AM 48.2 °F - 46.4 °F 93% 30.24 in 6.2 mi Variable 2.3 mph - N/A   Mostly Cloudy
4:00 AM 48.2 °F - 46.4 °F 93% 30.24 in 6.2 mi Variable 2.3 mph - N/A   Mostly Cloudy
4:30 AM 48.2 °F - 46.4 °F 93% 30.24 in 6.2 mi Variable 1.2 mph - N/A   Scattered Clouds
5:00 AM 48.2 °F - 46.4 °F 93% 30.24 in 6.2 mi Calm Calm - N/A   Mostly Cloudy
5:30 AM 48.2 °F - 46.4 °F 93% 30.24 in 6.2 mi Calm Calm - N/A   Mostly Cloudy
6:00 AM 48.2 °F - 46.4 °F 93% 30.24 in 6.2 mi Variable 1.2 mph - N/A   Mostly Cloudy
6:30 AM 48.2 °F - 46.4 °F 93% 30.24 in 6.2 mi Variable 1.2 mph - N/A   Mostly Cloudy
7:00 AM 48.2 °F - 46.4 °F 93% 30.24 in 6.2 mi Variable 2.3 mph - N/A   Overcast
7:30 AM 48.2 °F - 46.4 °F 93% 30.24 in 6.2 mi Calm Calm - N/A   Overcast
8:00 AM 50.0 °F - 46.4 °F 87% 30.27 in 6.2 mi Calm Calm - N/A   Overcast
8:30 AM 50.0 °F - 46.4 °F 87% 30.27 in 6.2 mi Variable 3.5 mph - N/A   Overcast
9:00 AM 50.0 °F - 46.4 °F 87% 30.27 in 6.2 mi NW 5.8 mph - N/A   Overcast
9:30 AM 50.0 °F - 46.4 °F 87% 30.27 in 5.0 mi Variable 3.5 mph - N/A   Overcast
10:00 AM 50.0 °F - 46.4 °F 87% 30.27 in 3.1 mi NW 4.6 mph - N/A   Overcast
10:30 AM 50.0 °F - 48.2 °F 94% 30.27 in 1.2 mi NW 5.8 mph - N/A   Light Drizzle
11:00 AM 50.0 °F - 50.0 °F 100% 30.27 in 1.2 mi NW 5.8 mph - N/A   Light Drizzle
11:30 AM 48.2 °F - 48.2 °F 100% 30.27 in 1.2 mi NW 6.9 mph - N/A   Overcast
12:00 PM 50.0 °F - 50.0 °F 100% 30.27 in 1.6 mi NW 6.9 mph - N/A   Light Drizzle
12:30 PM 50.0 °F - 50.0 °F 100% 30.27 in 2.5 mi WNW 10.4 mph - N/A   Overcast
1:00 PM 48.2 °F - 48.2 °F 100% 30.27 in 3.1 mi WNW 13.8 mph - N/A   Overcast
1:30 PM 48.2 °F - 48.2 °F 100% 30.24 in 3.7 mi WNW 13.8 mph - N/A   Overcast
2:00 PM 48.2 °F - 46.4 °F 93% 30.24 in 4.3 mi WNW 12.7 mph - N/A   Mostly Cloudy
2:30 PM 46.4 °F 40.7 °F 44.6 °F 93% 30.24 in 4.3 mi WNW 12.7 mph - N/A   Mostly Cloudy
3:00 PM 46.4 °F 40.7 °F 44.6 °F 93% 30.27 in 3.7 mi WNW 12.7 mph - N/A   Mostly Cloudy
3:30 PM 44.6 °F 38.4 °F 44.6 °F 100% 30.27 in 3.7 mi WNW 12.7 mph - N/A   Overcast
4:00 PM 44.6 °F 38.8 °F 42.8 °F 93% 30.27 in 3.7 mi WNW 11.5 mph - N/A   Overcast
4:30 PM 44.6 °F 38.8 °F 42.8 °F 93% 30.24 in 3.7 mi WNW 11.5 mph - N/A   Overcast
5:00 PM 44.6 °F 38.1 °F 42.8 °F 93% 30.24 in 3.7 mi WNW 13.8 mph - N/A   Mostly Cloudy
5:30 PM 44.6 °F 37.8 °F 42.8 °F 93% 30.24 in 3.7 mi WNW 15.0 mph - N/A   Mostly Cloudy
6:00 PM 44.6 °F 38.4 °F 42.8 °F 93% 30.24 in 3.7 mi WNW 12.7 mph - N/A   Mostly Cloudy
6:30 PM 44.6 °F 37.4 °F 42.8 °F 93% 30.27 in 3.7 mi WNW 16.1 mph - N/A   Mostly Cloudy
7:00 PM 44.6 °F 38.1 °F 42.8 °F 93% 30.24 in 3.7 mi WNW 13.8 mph - N/A   Unknown
7:30 PM 44.6 °F 39.2 °F 42.8 °F 93% 30.24 in - WNW 10.4 mph - N/A   Mostly Cloudy
8:00 PM 44.6 °F 38.8 °F 42.8 °F 93% 30.24 in 3.1 mi WNW 11.5 mph - N/A   Mostly Cloudy
8:30 PM 44.6 °F 39.7 °F 42.8 °F 93% 30.24 in 3.1 mi WNW 9.2 mph - N/A   Mostly Cloudy
9:00 PM 44.6 °F 39.2 °F 42.8 °F 93% 30.24 in 3.1 mi WNW 10.4 mph - N/A   Mostly Cloudy
9:30 PM 44.6 °F 40.7 °F 42.8 °F 93% 30.24 in 3.1 mi WNW 6.9 mph - N/A   Mostly Cloudy
10:00 PM 44.6 °F 42.2 °F 42.8 °F 93% 30.27 in 3.1 mi NW 4.6 mph - N/A   Mostly Cloudy
10:30 PM 44.6 °F 42.2 °F 42.8 °F 93% 30.27 in 3.1 mi NNW 4.6 mph - N/A   Mostly Cloudy
11:00 PM 44.6 °F 43.1 °F 42.8 °F 93% 30.27 in 3.1 mi Variable 3.5 mph - N/A   Mostly Cloudy
11:30 PM 46.4 °F 43.5 °F 42.8 °F 87% 30.27 in 3.1 mi NW 5.8 mph - N/A   Mostly Cloudy